North Windham, CT

7:11 AM EST on February 11, 2016 (GMT -0500)
Windham

Weather History for KIJD - June, 2013

Change the Weather History Date:

Sunday, June 30, 2013

  Actual Average Record
Temperature  
Mean Temperature 76 °F -  
Max Temperature 82 °F 80 °F 94 °F (1959)
Min Temperature 71 °F 56 °F 43 °F (1956)
Cooling Degree Days 12    
Growing Degree Days 26 (Base 50)    
Moisture  
Dew Point 70 °F    
Average Humidity 84    
Maximum Humidity 94    
Minimum Humidity 67    
Precipitation  
Precipitation 0.06 in - - ()
Sea Level Pressure  
Sea Level Pressure 29.86 in    
Wind  
Wind Speed 6 mph (South)    
Max Wind Speed 12 mph    
Max Gust Speed 20 mph    
Visibility 8 miles    
Events Rain    
Averages and records for this station are not official NWS values.
T = Trace of Precipitation, MM = Missing Value Source: NWS Daily Summary

Daily Weather History Graph

Daily Weather History Graph

Search for Another Location

Airport or City:

Trip Planner

Search our weather history database for the weather conditions in past years. The results will help you decide how hot, cold, wet, or windy it might be!

Date:

Astronomy

Jun. 30, 2013 Rise Set
Actual Time 5:17 AM EDT 8:27 PM EDT
Civil Twilight 4:43 AM EDT 9:01 PM EDT
Nautical Twilight 3:59 AM EDT 9:45 PM EDT
Astronomical Twilight 3:07 AM EDT 10:37 PM EDT
Moon 12:18 AM EDT (6/30) 1:35 PM EDT (6/30)
Length of Visible Light 16h 17m
Length of Day
15h 09m
Last Quarter, 45% of the Moon is Illuminated
Jun 30
Last Quarter
Jul 8
New
Jul 15
First Quarter
Jul 22
Full
Jul 29
Last Quarter

Hourly Weather History & Observations

Time (EDT) Temp. Heat Index Dew Point Humidity Pressure Visibility Wind Dir Wind Speed Gust Speed Precip Events Conditions
12:52 AM 73.0 °F - 68.0 °F 84% 29.74 in 10.0 mi South 4.6 mph - N/A   Overcast
1:52 AM 73.0 °F - 69.1 °F 87% 29.74 in 9.0 mi South 4.6 mph - N/A   Overcast
2:52 AM 73.0 °F - 69.1 °F 87% 29.75 in 8.0 mi South 4.6 mph - N/A   Overcast
3:52 AM 73.0 °F - 69.1 °F 87% 29.75 in 8.0 mi SSW 4.6 mph - N/A   Overcast
4:52 AM 72.0 °F - 69.1 °F 91% 29.76 in 7.0 mi South 4.6 mph - N/A   Overcast
5:52 AM 72.0 °F - 69.1 °F 91% 29.78 in 6.0 mi South 3.5 mph - N/A   Overcast
6:52 AM 72.0 °F - 69.1 °F 91% 29.81 in 6.0 mi Calm Calm - N/A   Overcast
7:16 AM 71.6 °F - 69.8 °F 94% 29.83 in 6.0 mi SSW 4.6 mph - N/A   Overcast
7:52 AM 73.0 °F - 69.1 °F 87% 29.84 in 5.0 mi South 4.6 mph - N/A   Overcast
8:12 AM 73.4 °F - 69.8 °F 88% 29.85 in 6.0 mi SSE 5.8 mph - N/A   Haze
8:52 AM 73.9 °F - 69.1 °F 85% 29.85 in 6.0 mi SSE 4.6 mph - N/A   Haze
9:35 AM 73.4 °F - 69.8 °F 88% 29.85 in 5.0 mi SSW 3.5 mph - N/A   Overcast
9:52 AM 73.9 °F - 70.0 °F 87% 29.85 in 6.0 mi South 4.6 mph - N/A   Overcast
10:13 AM 75.2 °F - 69.8 °F 83% 29.85 in 6.0 mi South 4.6 mph - N/A   Haze
10:45 AM 77.0 °F - 69.8 °F 78% 29.86 in 7.0 mi Variable 5.8 mph - N/A   Scattered Clouds
10:52 AM 78.1 °F - 70.0 °F 76% 29.86 in 8.0 mi SSE 5.8 mph - N/A   Scattered Clouds
11:52 AM 80.1 °F 83.2 °F 70.0 °F 71% 29.85 in 10.0 mi SSE 5.8 mph - N/A   Clear
12:52 PM 82.0 °F 85.9 °F 70.0 °F 67% 29.85 in 10.0 mi SSW 6.9 mph 17.3 mph N/A   Scattered Clouds
1:48 PM 80.6 °F 83.9 °F 69.8 °F 70% 29.87 in 10.0 mi South 11.5 mph 18.4 mph N/A   Mostly Cloudy
1:52 PM 80.1 °F 83.2 °F 70.0 °F 71% 29.87 in 10.0 mi South 11.5 mph 18.4 mph N/A   Mostly Cloudy
2:52 PM 79.0 °F - 70.0 °F 74% 29.87 in 10.0 mi South 10.4 mph - N/A   Overcast
3:47 PM 78.8 °F - 69.8 °F 74% 29.87 in 10.0 mi South 10.4 mph 19.6 mph N/A   Scattered Clouds
3:52 PM 79.0 °F - 70.0 °F 74% 29.87 in 10.0 mi SSW 10.4 mph - N/A   Scattered Clouds
4:03 PM 78.8 °F - 69.8 °F 74% 29.88 in 10.0 mi SSW 10.4 mph 17.3 mph N/A   Mostly Cloudy
4:52 PM 77.0 °F - 69.1 °F 76% 29.89 in 10.0 mi South 10.4 mph - N/A   Overcast
5:52 PM 75.0 °F - 69.1 °F 82% 29.90 in 10.0 mi South 9.2 mph - N/A   Overcast
5:59 PM 75.2 °F - 69.8 °F 83% 29.90 in 10.0 mi South 10.4 mph - N/A   Overcast
6:52 PM 73.9 °F - 69.1 °F 85% 29.91 in 10.0 mi South 8.1 mph - N/A   Overcast
7:50 PM 71.6 °F - 69.8 °F 94% 29.92 in 2.5 mi South 5.8 mph - 0.04 in Rain Light Rain
7:52 PM 72.0 °F - 69.1 °F 91% 29.91 in 4.0 mi SSE 4.6 mph - 0.04 in Rain Light Rain
8:52 PM 72.0 °F - 70.0 °F 93% 29.92 in 8.0 mi SSE 3.5 mph - 0.00 in   Overcast
9:52 PM 72.0 °F - 70.0 °F 93% 29.93 in 6.0 mi SE 3.5 mph - 0.00 in Rain Light Rain
10:52 PM 72.0 °F - 70.0 °F 93% 29.93 in 3.0 mi SSE 3.5 mph - 0.01 in Rain Light Rain
11:25 PM 71.6 °F - 69.8 °F 94% 29.94 in 10.0 mi South 4.6 mph - 0.01 in   Overcast
11:49 PM 71.6 °F - 69.8 °F 94% 29.95 in 10.0 mi South 4.6 mph - 0.01 in   Overcast
11:52 PM 72.0 °F - 70.0 °F 93% 29.95 in 10.0 mi South 4.6 mph - 0.01 in   Overcast